Home   Weather   Shiprock   Past weeks
Flag for USA

Past Weather in Shiprock, New Mexico, USA — Yesterday and Last 2 Weeks

Now
36 °F

Sunny.


Feels Like: 29 °F
Forecast: 52 / 28 °F
Wind: 9 mph from Southeast

Location: Four Corners Regional Airport

Current Time: Dec 7, 2019 at 10:44:26 am

Latest Report: Dec 7, 2019 at 9:53 am


Visibility: 10 mi

Pressure: 30.37 "Hg (25.24 "Hg at 1492m altitude)

Humidity: 75%

Dew Point: 29 °F

Location of ShiprockLocation

Past Weather in Shiprock — Graph

°F

Shiprock Temperature Yesterday

Maximum temperature yesterday: 48 °F (at 3:53 pm)
Minimum temperature yesterday: 28 °F (at 1:53 am)
Average temperature yesterday: 35 °F

High & Low Weather Summary for the Past Weeks

 TemperatureHumidityPressure
High54 °F (Nov 25, 2:53 pm)97% (Nov 22, 8:08 am)30.46 "Hg (Nov 22, 8:08 am)
Low17 °F (Dec 1, 5:53 am)30% (Nov 25, 2:53 pm)29.39 "Hg (Nov 25, 5:53 pm)
Average34 °F71%30.07 "Hg
* Reported Nov 22 8:08 am — Dec 7 8:53 am, Shiprock. Weather by CustomWeather, © 2019

Note: Actual official high and low records may vary slightly from our data, if they occured in-between our weather recording intervals... More about our weather records

Shiprock Weather History for the Previous 24 Hours

Scroll right to see more
 ConditionsComfort  
Time TempWeatherWind HumidityBarometerVisibility
8:53 am
Sat, Dec 7
33 °FSunny.8 mph82%30.37 "Hg10 mi
7:53 am30 °FSunny.3 mph85%30.38 "Hg10 mi
6:53 am29 °FPassing clouds.6 mph89%30.37 "Hg10 mi
5:53 am30 °FClear.6 mph85%30.35 "Hg10 mi
4:53 am28 °FPassing clouds.3 mph89%30.34 "Hg10 mi
3:53 am30 °FClear.6 mph89%30.32 "Hg10 mi
2:53 am30 °FClear.8 mph89%30.34 "Hg10 mi
1:53 am28 °FClear.7 mph89%30.37 "Hg10 mi
12:53 am29 °FClear.7 mph89%30.37 "Hg10 mi
11:53 pm
Fri, Dec 6
30 °FClear.8 mph89%30.38 "Hg10 mi
10:53 pm30 °FClear.5 mph89%30.41 "Hg10 mi
9:53 pm31 °FClear.9 mph85%30.40 "Hg10 mi
8:53 pm31 °FClear.7 mph89%30.41 "Hg10 mi
7:53 pm32 °FClear.3 mph88%30.41 "Hg10 mi
6:53 pm34 °FClear.3 mph82%30.40 "Hg10 mi
5:53 pm41 °FClear.No wind70%30.36 "Hg10 mi
4:53 pm44 °FSunny.3 mph63%30.35 "Hg10 mi
3:53 pm48 °FSunny.No wind54%30.34 "Hg10 mi
2:53 pm46 °FSunny.3 mph61%30.36 "Hg10 mi
1:53 pm46 °FSunny.6 mph63%30.36 "Hg10 mi
12:53 pm43 °FSunny.6 mph68%30.38 "Hg10 mi
11:53 am41 °FSunny.6 mph74%30.42 "Hg10 mi
10:53 am38 °FSunny.8 mph73%30.45 "Hg10 mi
Weather by CustomWeather, © 2019

See weather overview

Advertising